Airport details for: LEZL (Spain)

Metar

LEZL 171830Z 26007KT 230V320 9999 FEW020CB SCT030 22/18 Q1017 TEMPO 4000 TSRA

General details

ICAO: LEZL
IATA: SVQ
Name (city): Seville
Major:
Country: Spain
vACC: vACC Spain
Description:

Sevilla "San Pablo" Airport LEZL

Seville Airport (Spanish: Aeropuerto de Sevilla)(IATA: SVQ, ICAO: LEZL) is the main airport for Seville in southern Spain. The airport handled 4,051,392 passengers and just under 5,000 tonnes of cargo in 2009. It has one terminal and onerunway and serves as base for the low cost carriers Vueling and Ryanair.

Scenery links:
FS9 scenery:
FSX/P3D scenery:
XP scenery:
Elevation: 111 ft.
Transition altitude: 6000 ft.
MSA: 11000 ft.
Latitude: 37.418056
Longitude: -5.898889
LEZL Charts
LEZL Notams
LEZL Online stations

Runways

Number Course Length Elevation Lat Lon ILS ILS freq ILS FAC GP
09 92° 11030ft / 3362 m 83ft 37.417875 -5.912084 111.1 92° 3.0°
27 272° 11030ft / 3362 m 111ft 37.418003 -5.874103 110.1 272° 3.0°